Regional Weather Roundup
Issued by NWS

Home | Current Version | Previous Version | Text Only | Print | Product List | Glossary On
Versions: 1 2 3 4 5 6 7 8 9 10 11 12 13 14 15 16 17 18 19 20 21 22 23 24 25 26 27 28 29 30 31 32 33 34 35 36 37 38 39 40 41 42 43 44 45 46 47 48 49 50
000
ASUS43 KBIS 292310
RWRND

NORTH DAKOTA REGIONAL WEATHER ROUNDUP
NATIONAL WEATHER SERVICE BISMARCK ND
600 PM CDT MON JUN 29 2015

NOTE: "FAIR" INDICATES FEW OR NO CLOUDS BELOW 12,000 FEET WITH NO
SIGNIFICANT WEATHER AND/OR OBSTRUCTIONS TO VISIBILITY.


NDZ001>003-009>011-017-300000-
NORTHWEST NORTH DAKOTA

CITY           SKY/WX    TMP DP  RH WIND       PRES   REMARKS
WILLISTON      SUNNY     96  59  29 NE15      29.91S HX  95
MINOT          SUNNY     88  56  33 VRB5      29.89F
MINOT AFB      SUNNY     92  54  27 NW6       29.88F HX  90
$$

NDZ018>021-031>035-040>046-300000-
SOUTHWEST NORTH DAKOTA

CITY           SKY/WX    TMP DP  RH WIND       PRES   REMARKS
BISMARCK       SUNNY     91  56  30 N6        29.92F
DICKINSON      SUNNY     92  60  34 W6        29.93F HX  91
GARRISON         N/A     90  56  31 CALM      29.91F
HETTINGER ARPT SUNNY     88  63  43 SW6       29.98F
$$

NDZ004>008-012>016-024-026-027-054-300000-
NORTHEAST NORTH DAKOTA

CITY           SKY/WX    TMP DP  RH WIND       PRES   REMARKS
GRAND FORKS    CLOUDY    74  62  66 N10       29.87R
GRND FRKS AFB  MOSUNNY   74  65  74 N10       29.89R
DEVILS LAKE    MOSUNNY   75  61  60 NE8       29.93R
$$

NDZ022-023-025-028>030-036>039-047>053-300000-
SOUTHEAST NORTH DAKOTA

CITY           SKY/WX    TMP DP  RH WIND       PRES   REMARKS
FARGO          SUNNY     76  63  64 NW13      29.86S
JAMESTOWN      MOSUNNY   79  64  60 N6        29.91S
$$




USA.gov is the U.S. government's official web portal to all federal, state and local government web resources and services.